sat.trackr.live / text

‹ back to catalog

AMAZONAS NEXUS

NORAD 55508 · 2023-017A

PAYLOAD ACTIVE UNKNOWN

§ Identity

Operator
Country
SPN
Launch date
2023-02-07
Launch site
AFETR
Launch vehicle
Mass (kg)
RCS (m²)

Purposes: comms

External: N2YO · Heavens-Above · Gunter

§ Orbital elements

Epoch: 2026-09-19T06:25:05.972736Z

Period
1,436.11 min
Inclination
0.0438°
Eccentricity
0.0002803
Mean motion
1.00271049 rev/d
Perigee alt
35,775.0 km
Apogee alt
35,798.6 km
Semi-major
42,164.9 km
B*
0.0000e+0
RAAN
27.7540°
Arg perigee
104.0392°
Mean anomaly
261.6756°
Rev number
798

§ Raw data

AMAZONAS NEXUS1 55508U 23017A   26262.26743024 -.00000287  00000+0  00000+0 0  99982 55508   0.0438  27.7540 0002803 104.0392 261.6756  1.00271049  7988

JSON: /api/v1/satellites/55508 · /tle

For live sub-satellite position, see the globe view (requires WebGL).

§ Visibility from observer

Set your observer location to see the next 7 days of passes ≥ 10°. The values pass through the URL so the page stays shareable.

No JS? Fill the form by hand. The geolocation button needs JavaScript.